Date String (YYYY-MM-DD hh:mm:ss) UTC,Instrument flags,Ambient pressure (hPa),Sample flow (lpm),Bypass flow (lpm),Sample temperature (°C),Ambient temperature (°C),ASC tube jacket temperature (°C),LED temperature (°C),Box temperature (°C),Sample RH (%),Span deviation,Mass concentration (μg/m³),Mass concentration (μg/m³),Mass concentration (μg/m³)
DateTimeUTC,F1_M11,P_M11,Q1_M11,Q2_M11,T1_M11,T2_M11,T3_M11,T4_M11,T5_M11,U1_M11,ZSPAN_M11,X2_M11,X0_M11,X1_M11
2022-05-09 09:00:00,,0808.4,4.99,0.00,27.5,26.6,00.0,36.6,29.4,22.8,0000.0,0006.04,0013.25,0004.41
2022-05-09 09:01:00,,0808.4,5.01,0.00,27.5,26.6,00.0,36.6,29.3,22.8,0000.0,0005.98,0013.17,0004.37
2022-05-09 09:02:00,,0808.4,5.01,0.00,27.5,26.6,00.0,36.6,29.3,22.8,0000.0,0005.85,0012.86,0004.33
2022-05-09 09:03:00,,0808.3,4.99,0.00,27.5,26.6,00.0,36.6,29.3,22.8,0000.0,0005.75,0012.05,0004.29
2022-05-09 09:04:00,,0808.4,5.01,0.00,27.5,26.7,00.0,36.6,29.4,22.8,0000.0,0005.73,0011.33,0004.28
2022-05-09 09:05:00,,0808.5,4.99,0.00,27.5,26.7,00.0,36.5,29.4,22.8,0000.0,0005.70,0011.66,0004.27
2022-05-09 09:06:00,,0808.5,5.01,0.00,27.5,26.7,00.0,36.5,29.4,22.8,0000.0,0005.69,0012.01,0004.28
2022-05-09 09:07:00,,0808.5,5.00,0.00,27.5,26.7,00.0,36.5,29.4,22.8,0000.0,0005.64,0012.19,0004.30
2022-05-09 09:08:00,,0808.5,5.00,0.00,27.5,26.7,00.0,36.5,29.4,22.8,0000.0,0005.67,0012.28,0004.31
2022-05-09 09:09:00,,0808.5,5.00,0.00,27.5,26.7,00.0,36.5,29.3,22.8,0000.0,0005.65,0012.71,0004.31
2022-05-09 09:10:00,,0808.5,5.00,0.00,27.5,26.7,00.0,36.5,29.3,22.9,0000.0,0005.66,0013.06,0004.32
2022-05-09 09:11:00,,0808.5,5.00,0.00,27.5,26.7,00.0,36.5,29.3,22.9,0000.0,0005.71,0013.32,0004.30
2022-05-09 09:12:00,,0808.4,5.00,0.00,27.5,26.6,00.0,36.5,29.3,22.9,0000.0,0005.73,0013.45,0004.29
2022-05-09 09:13:00,,0808.4,5.00,0.00,27.5,26.5,00.0,36.5,29.3,22.9,0000.0,0005.79,0013.69,0004.28
2022-05-09 09:14:00,,0808.4,5.01,0.00,27.4,26.6,00.0,36.5,29.2,22.9,0000.0,0005.79,0013.74,0004.25
2022-05-09 09:15:00,,0808.5,5.00,0.00,27.4,26.6,00.0,36.5,29.2,22.9,0000.0,0005.75,0013.59,0004.22
2022-05-09 09:16:00,,0808.5,5.01,0.00,27.4,26.6,00.0,36.5,29.2,22.8,0000.0,0005.67,0013.15,0004.18
2022-05-09 09:17:00,,0808.5,5.00,0.00,27.4,26.6,00.0,36.5,29.2,22.9,0000.0,0005.60,0012.43,0004.11
2022-05-09 09:18:00,,0808.5,5.00,0.00,27.4,26.6,00.0,36.5,29.2,22.9,0000.0,0005.57,0012.29,0004.04
2022-05-09 09:19:00,,0808.5,5.00,0.00,27.4,26.6,00.0,36.5,29.2,22.9,0000.0,0005.48,0012.20,0003.96
2022-05-09 09:20:00,,0808.5,5.00,0.00,27.4,26.6,00.0,36.5,29.2,22.9,0000.0,0005.45,0011.52,0003.89
2022-05-09 09:21:00,,0808.6,5.00,0.00,27.4,26.6,00.0,36.4,29.3,22.8,0000.0,0005.36,0010.88,0003.80
2022-05-09 09:22:00,,0808.6,5.00,0.00,27.4,26.6,00.0,36.4,29.2,22.7,0000.0,0005.28,0010.73,0003.74
2022-05-09 09:23:00,,0808.6,5.01,0.00,27.4,26.6,00.0,36.4,29.2,22.7,0000.0,0005.18,0010.58,0003.67
2022-05-09 09:24:00,,0808.4,4.99,0.00,27.4,26.6,00.0,36.4,29.2,22.8,0000.0,0005.08,0010.45,0003.59
2022-05-09 09:25:00,,0808.4,5.00,0.00,27.4,26.5,00.0,36.4,29.2,22.8,0000.0,0005.02,0010.43,0003.54
2022-05-09 09:26:00,,0808.4,5.01,0.00,27.4,26.6,00.0,36.4,29.2,22.8,0000.0,0004.93,0010.18,0003.47
2022-05-09 09:27:00,,0808.6,5.00,0.00,27.4,26.6,00.0,36.4,29.2,22.8,0000.0,0004.91,0010.14,0003.42
2022-05-09 09:28:00,,0808.8,5.00,0.00,27.4,26.6,00.0,36.4,29.2,22.7,0000.0,0004.87,0010.13,0003.36
2022-05-09 09:29:00,,0809.0,5.00,0.00,27.4,26.6,00.0,36.4,29.2,22.6,0000.0,0004.76,0009.91,0003.31
2022-05-09 09:30:00,,0808.9,5.00,0.00,27.4,26.6,00.0,36.4,29.2,22.6,0000.0,0004.71,0009.79,0003.27
2022-05-09 09:31:00,,0808.7,5.00,0.00,27.4,26.6,00.0,36.4,29.2,22.6,0000.0,0004.63,0009.56,0003.24
2022-05-09 09:32:00,,0808.5,5.00,0.00,27.3,26.5,00.0,36.4,29.2,22.6,0000.0,0004.58,0009.41,0003.21
2022-05-09 09:33:00,,0808.5,5.00,0.00,27.3,26.5,00.0,36.4,29.2,22.6,0000.0,0004.52,0009.29,0003.17
2022-05-09 09:34:00,,0808.6,5.01,0.00,27.3,26.5,00.0,36.4,29.2,22.6,0000.0,0004.48,0009.21,0003.14
2022-05-09 09:35:00,,0808.7,5.00,0.00,27.3,26.6,00.0,36.4,29.2,22.6,0000.0,0004.43,0009.10,0003.11
2022-05-09 09:36:00,,0808.9,4.99,0.00,27.3,26.6,00.0,36.4,29.2,22.6,0000.0,0004.41,0009.06,0003.05
2022-05-09 09:37:00,,0808.9,4.99,0.00,27.3,26.6,00.0,36.4,29.2,22.6,0000.0,0004.38,0009.21,0003.01
2022-05-09 09:38:00,,0808.8,5.00,0.00,27.3,26.6,00.0,36.4,29.2,22.6,0000.0,0004.32,0009.39,0002.97
2022-05-09 09:39:00,,0808.7,5.01,0.00,27.3,26.6,00.0,36.3,29.1,22.6,0000.0,0004.32,0009.36,0002.97
2022-05-09 09:40:00,,0808.8,5.01,0.00,27.3,26.6,00.0,36.3,29.2,22.7,0000.0,0004.31,0009.28,0002.96
2022-05-09 09:41:00,,0808.9,4.99,0.00,27.3,26.6,00.0,36.3,29.2,22.7,0000.0,0004.29,0009.32,0002.95
2022-05-09 09:42:00,,0808.9,5.00,0.00,27.3,26.5,00.0,36.3,29.2,22.7,0000.0,0004.27,0009.37,0002.94
2022-05-09 09:43:00,,0808.8,5.00,0.00,27.3,26.5,00.0,36.3,29.2,22.7,0000.0,0004.25,0009.29,0002.93
2022-05-09 09:44:00,,0808.7,5.00,0.00,27.3,26.6,00.0,36.3,29.1,22.7,0000.0,0004.25,0009.28,0002.94
2022-05-09 09:45:00,,0808.8,5.00,0.00,27.3,26.5,00.0,36.3,29.1,22.7,0000.0,0004.31,0009.62,0002.96
2022-05-09 09:46:00,,0808.9,5.01,0.00,27.3,26.6,00.0,36.3,29.1,22.7,0000.0,0004.32,0010.00,0002.94
2022-05-09 09:47:00,,0808.9,5.00,0.00,27.3,26.6,00.0,36.3,29.1,22.7,0000.0,0004.34,0010.09,0002.96
2022-05-09 09:48:00,,0808.9,5.00,0.00,27.3,26.6,00.0,36.3,29.1,22.7,0000.0,0004.37,0010.06,0002.98
2022-05-09 09:49:00,,0808.9,4.99,0.00,27.3,26.5,00.0,36.3,29.1,22.8,0000.0,0004.43,0009.82,0003.01
2022-05-09 09:50:00,,0808.9,5.00,0.00,27.3,26.5,00.0,36.3,29.1,22.8,0000.0,0004.41,0009.79,0003.00
2022-05-09 09:51:00,,0808.8,5.00,0.00,27.3,26.6,00.0,36.3,29.1,22.7,0000.0,0004.42,0009.81,0003.00
2022-05-09 09:52:00,,0808.9,5.00,0.00,27.3,26.5,00.0,36.3,29.1,22.8,0000.0,0004.45,0009.82,0003.00
2022-05-09 09:53:00,,0809.0,4.99,0.00,27.3,26.6,00.0,36.3,29.1,22.8,0000.0,0004.41,0009.80,0002.98
2022-05-09 09:54:00,,0809.0,5.00,0.00,27.3,26.5,00.0,36.3,29.1,22.8,0000.0,0004.41,0009.86,0002.98
2022-05-09 09:55:00,,0809.1,5.00,0.00,27.3,26.5,00.0,36.3,29.1,22.8,0000.0,0004.37,0009.85,0002.98
2022-05-09 09:56:00,,0809.1,5.00,0.00,27.2,26.5,00.0,36.3,29.1,22.8,0000.0,0004.31,0009.46,0002.99
2022-05-09 09:57:00,,0809.0,5.00,0.00,27.2,26.5,00.0,36.3,29.1,22.8,0000.0,0004.29,0009.16,0003.01
2022-05-09 09:58:00,,0809.0,5.00,0.00,27.2,26.4,00.0,36.3,29.0,22.9,0000.0,0004.25,0009.60,0003.01
2022-05-09 09:59:00,,0808.9,5.00,0.00,27.2,26.4,00.0,36.3,29.1,22.9,0000.0,0004.21,0009.50,0003.01
